Flag for Japan Weather past 2 weeks in Nagasaki, Japan

Now
61 °F

Cool.


Feels Like: 61 °F
Forecast: 53 / 72 °F
Wind: No wind

Location: Nagasaki


UV Index: 7 (High)

Visibility: N/A


Pressure: 30.20 "Hg

Humidity: 62%

Dew point: 47 °F

Location of NagasakiLocation

Historic Weather in Nagasaki

°F

Nagasaki temperature yesterday

Maximum temperature yesterday: 73 °F (at 1:00 PM)
Minimum temperature yesterday: 51 °F (at 6:00 AM)
Average temperature yesterday: 62 °F

Past Weeks' High & Low Weather Summary

 TemperatureHumidityPressure
High75 °F (Apr 24, 2:00 PM)96% (Apr 18, 9:00 AM)30.20 "Hg (Apr 18, 9:00 AM)
Low48 °F (Apr 15, 6:00 AM)16% (Apr 14, 3:00 PM)29.80 "Hg (Apr 13, 3:00 PM)
Average61 °F69%30.01 "Hg
* Reported Apr 9 10:00 PM — Apr 24 10:00 PM, Nagasaki, Weather by CustomWeather, © 2014

Note: Actual official high and low records may vary slightly from our data, if they occured in-between our weather recording intervals... More about our weather records

Advertising

Historic Weather Conditions — Data for Previous 24 hours

 ConditionsComfort  
Time TempWeatherWind HumidityBarometerVisibility
10:00 PM
Apr 24
61 °FCool.No wind62%30.20 "HgN/A
9:00 PM62 °FPassing clouds.1 mph56%30.19 "Hg9 mi
8:00 PM65 °FMild.2 mph46%30.18 "HgN/A
7:00 PM66 °FMild.7 mph46%30.16 "HgN/A
6:00 PM68 °FPassing clouds.6 mph48%30.15 "Hg9 mi
5:00 PM70 °FMild.8 mph43%30.14 "HgN/A
4:00 PM71 °FMild.6 mph32%30.15 "HgN/A
3:00 PM75 °FPartly sunny.6 mph22%30.14 "Hg12 mi
2:00 PM75 °FMild.3 mph22%30.14 "HgN/A
1:00 PM73 °FMild.5 mph22%30.15 "HgN/A
12:00 PM72 °FOvercast.5 mph27%30.17 "Hg12 mi
11:00 AM70 °FMild.2 mph42%30.19 "HgN/A
10:00 AM67 °FMild.2 mph47%30.20 "HgN/A
9:00 AM64 °FOvercast.5 mph49%30.18 "Hg9 mi
8:00 AM60 °FCool.3 mph61%30.16 "HgN/A
7:00 AM57 °FCool.5 mph67%30.16 "HgN/A
6:00 AM55 °FPartly sunny.3 mph64%30.13 "Hg9 mi
5:00 AM56 °FRefreshingly cool.2 mph59%30.11 "HgN/A
4:00 AM57 °FRefreshingly cool.2 mph55%30.11 "HgN/A
3:00 AM58 °FPassing clouds.2 mph50%30.11 "Hg9 mi
2:00 AM59 °FRefreshingly cool.3 mph40%30.11 "HgN/A
1:00 AM61 °FRefreshingly cool.2 mph40%30.11 "HgN/A
12:00 AM61 °FRefreshingly cool.2 mph50%30.09 "HgN/A
11:00 PM
Apr 23
61 °FRefreshingly cool.2 mph47%30.10 "HgN/A
Weather by CustomWeather, © 2014

See weather overview